Regional Weather Roundup
Issued by NWS New Orleans/Baton Rouge, LA

Home | Current Version | Previous Version | Text Only | Print | Product List | Glossary Off
Versions: 1 2 3 4 5 6 7 8 9 10 11 12 13 14 15 16 17 18 19 20 21 22 23 24 25 26 27 28 29 30 31 32 33 34 35 36 37 38 39 40 41 42 43 44 45 46 47 48 49 50

468
ASUS44 KLIX 260805
RWRLIX
NEW ORLEANS REGIONAL WEATHER ROUNDUP
NATIONAL WEATHER SERVICE NEW ORLEANS LA
300 AM CDT SUN OCT 26 2014

NOTE: "FAIR" INDICATES FEW OR NO CLOUDS BELOW 12,000 FEET WITH NO
      SIGNIFICANT WEATHER AND/OR OBSTRUCTIONS TO VISIBILITY.
      SKY/WX - SKY CONDITION AND SIGNIFICANT WEATHER.
      TMP - AIR TEMPERATURE.     DP    - DEWPOINT TEMPERATURE.
      RH  - RELATIVE HUMIDITY.   PRES  - PRESSURE.
      HI  - HEAT INDEX.          WCI   - WIND CHILL INDEX.

*  THESE STATIONS ARE NOT NWS OR FAA STATIONS AND ARE NOT UNDER
   NWS QUALITY CONTROL.

LAZ038-040-048-061>063-065>067-069-260900-
SOUTHEAST LOUISIANA

CITY           SKY/WX    TMP DP  RH WIND       PRES   REMARKS
N.O. AUDUBON     N/A     64  62  93 MISG        N/A
N.O. INTL ARPT CLEAR     62  57  83 CALM      30.05F
N.O. LAKEFRONT CLEAR     70  61  73 N6        30.05F
N.O. DOWNTOWN*   N/A     68  57  68 CALM      30.06S
SLIDELL        CLEAR     56  52  86 CALM      30.04F
BATON ROUGE    CLEAR     56  53  90 CALM      30.05F
BOOTHVILLE     CLEAR     66  64  93 NW3       30.04F
BELLE CHASSE   CLEAR     57  53  86 CALM      30.04F
BOGALUSA*        N/A     55  52  89 CALM      30.06F
NEW ROADS*       N/A     54  53  97 CALM      30.06F
GONZALES*        N/A     55  55 100 CALM      30.05F
HAMMOND*       CLEAR     55  52  88 CALM      30.06F
HOUMA*         CLEAR     54  54  99 CALM      30.06S FOG
PORT FOURCHON* SUNNY     66  61  82 NW7       30.08S

$$

MSZ070-080>082-260900-
SOUTHERN MISSISSIPPI

CITY           SKY/WX    TMP DP  RH WIND       PRES   REMARKS
MCCOMB         CLEAR     56  52  86 CALM      30.05F
GULFPORT       CLEAR     58  56  93 CALM      30.03F
BILOXI         CLEAR     63  60  91 NW2       30.04F
PASCAGOULA     CLEAR     53  52  96 CALM      30.04F FOG

$$

COASTAL OBSERVATIONS
LAKE AND NEARSHORE STATIONS

STATION/POSITION TIME  TEMP    WIND        PRES    WAVE
                       AIR SEA DIR/SP/G            HT/PER
                 (UTC) (F)     (DEG/KT/KT) (MB)    (FT/S)
PASCAGOULA       0800   63     360/  5/  6 1016.4
WAVELAND YACHT   0800   65     340/  2/  3 1016.5
GRAND ISLE       0800   69 72  350/  5/  7 1017.7
SOUTHWEST PASS   0800   71 80              1017.3
NEW CANAL        0800   71 70   CALM  /  2 1017.8
SHELL BEACH      0800   70 68  320/  5/  5 1017.1

OFFSHORE STATIONS

STATION/POSITION TIME  TEMP    WIND        PRES    WAVE
                       AIR SEA DIR/SP/G            HT/PER
                 (UTC) (F)     (DEG/KT/KT) (MB)    (FT/S)
64 S DAUPHIN ISL 0700   74 78   10/  8/ 10 1017.3    2/ 4

$$




USA.gov is the U.S. government's official web portal to all federal, state and local government web resources and services.